Garrison, ND

12:03 PM CST on February 23, 2017 (GMT -0600)
Garrison

Weather History for KN60 - June, 2014

Change the Weather History Date:

Monday, June 9, 2014

  Actual Average Record
Temperature  
Mean Temperature 61 °F -  
Max Temperature 77 °F - 94 °F (2016)
Min Temperature 45 °F - 41 °F (2011)
Degree Days  
Heating Degree Days 4    
Cooling Degree Days 0    
Month to date cooling degree days 3  
Year to date cooling degree days 44  
Since 1 June cooling degree days 3  
Growing Degree Days 10 (Base 50)    
Moisture  
Dew Point 47 °F    
Average Humidity 63    
Maximum Humidity 93    
Minimum Humidity 33    
Precipitation  
Precipitation 0.00 in - 1.71 in (2002)
Month to date precipitation 0.61  
Year to date precipitation 7.26  
Sea Level Pressure  
Sea Level Pressure 29.93 in    
Wind  
Wind Speed 10 mph (South)    
Max Wind Speed 24 mph    
Max Gust Speed 30 mph    
T = Trace of Precipitation, MM = Missing Value Source: NWS Daily Summary

Daily Weather History Graph

Daily Weather History Graph

Search for Another Location

Airport or City:

Trip Planner

Search our weather history database for the weather conditions in past years. The results will help you decide how hot, cold, wet, or windy it might be!

Date:

Astronomy

Jun. 09, 2014 Rise Set
Actual Time 5:48 AM CDT 9:42 PM CDT
Civil Twilight 5:07 AM CDT 10:22 PM CDT
Nautical Twilight 4:12 AM CDT 11:17 PM CDT
Astronomical Twilight 2:48 AM CDT 12:43 AM CDT
Moon 5:51 PM CDT (6/9) 3:32 AM CDT (6/9)
Length of Visible Light 17h 14m
Length of Day
15h 54m
Waxing Gibbous, 85% of the Moon is Illuminated
Jun 9
Waxing Gibbous
Jun 12
Full
Jun 19
Last Quarter
Jun 27
New
Jul 5
First Quarter

Hourly Weather History & Observations

Time (CDT) Temp. Windchill Dew Point Humidity Pressure Visibility Wind Dir Wind Speed Gust Speed Precip Events Conditions
12:52 AM 52.0 °F - 46.0 °F 80% 30.04 in - Calm Calm - N/A   Unknown
1:52 AM 50.0 °F - 46.0 °F 86% 30.03 in - SE 3.5 mph - N/A   Unknown
2:52 AM 51.1 °F - 46.0 °F 83% 30.02 in - SSW 3.5 mph - N/A   Unknown
3:52 AM 48.0 °F - 46.0 °F 93% 30.02 in - WNW 3.5 mph - N/A   Unknown
4:52 AM 48.0 °F - 45.0 °F 89% 30.01 in - NNW 6.9 mph - N/A   Unknown
5:52 AM 46.0 °F 43.9 °F 44.1 °F 93% 30.02 in - North 4.6 mph - N/A   Unknown
6:52 AM 46.9 °F - 45.0 °F 93% 30.01 in - NNE 3.5 mph - N/A   Unknown
7:52 AM 54.0 °F - 48.9 °F 83% 30.01 in - Calm Calm - N/A   Unknown
8:52 AM 57.0 °F - 51.1 °F 81% 30.01 in - ESE 8.1 mph - N/A   Unknown
9:52 AM 59.0 °F - 50.0 °F 72% 30.00 in - ESE 10.4 mph - N/A   Unknown
10:52 AM 62.1 °F - 53.1 °F 72% 29.99 in - SE 11.5 mph - N/A   Unknown
11:52 AM 66.0 °F - 52.0 °F 60% 29.97 in - South 9.2 mph - N/A   Unknown
1:52 PM 73.0 °F - 48.9 °F 42% 29.91 in - SW 18.4 mph 25.3 mph N/A   Unknown
2:52 PM 75.0 °F - 46.9 °F 37% 29.88 in - SSW 19.6 mph - N/A   Unknown
3:52 PM 75.9 °F - 46.9 °F 36% 29.86 in - SSW 20.7 mph - N/A   Unknown
4:52 PM 75.9 °F - 44.1 °F 32% 29.85 in - SSW 19.6 mph - N/A   Unknown
5:52 PM 75.9 °F - 44.1 °F 32% 29.84 in - SW 17.3 mph - N/A   Unknown
6:52 PM 75.0 °F - 44.1 °F 33% 29.83 in - SSW 18.4 mph 26.5 mph N/A   Unknown
7:52 PM 73.0 °F - 46.0 °F 38% 29.81 in - South 18.4 mph - N/A   Unknown
8:52 PM 69.1 °F - 44.1 °F 40% 29.81 in - South 16.1 mph - N/A   Unknown
9:52 PM 66.9 °F - 45.0 °F 45% 29.80 in - South 17.3 mph - N/A   Unknown
10:52 PM 64.0 °F - 46.0 °F 52% 29.79 in - South 17.3 mph - N/A   Unknown
11:52 PM 63.0 °F - 46.9 °F 56% 29.78 in - South 16.1 mph 24.2 mph N/A   Unknown